Regional Weather Roundup
Issued by NWS

Home | Current Version | Previous Version | Graphics & Text | Print | Product List | Glossary On
Versions: 1 2 3 4 5 6 7 8 9 10 11 12 13 14 15 16 17 18 19 20 21 22 23 24 25 26 27
023
ASUS45 KBOU 211507
RWRCO

WEATHER ROUNDUP FOR COLORADO
NATIONAL WEATHER SERVICE DENVER/BOULDER CO
900 AM MDT THU MAY 21 2015

NOTE: "FAIR" INDICATES FEW OR NO CLOUDS BELOW 12000 FEET WITH NO
SIGNIFICANT WEATHER AND/OR OBSTRUCTIONS TO VISIBILITY.

COZ001>005-013-030-031-211600-
...NORTHWEST COLORADO...

CITY           SKY/WX    TMP DP  RH WIND       PRES   REMARKS
CRAIG          MOSUNNY   49  39  68 NE3       30.13F
HAYDEN         MOSUNNY   46  36  66 E5        30.14F
MEEKER         MOSUNNY   45  36  70 CALM      30.12S
MOUNT WERNER   NOT AVBL
STEAMBOAT SPGS MOSUNNY   46  36  69 CALM      30.14F
WALDEN         SUNNY     41  36  81 NW5       30.21F
$$

COZ006>008-011-211600-
...WEST CENTRAL VALLEYS...

CITY           SKY/WX    TMP DP  RH WIND       PRES   REMARKS
GRAND JUNCTION CLOUDY    55  39  54 S8        30.03F
MONTROSE       CLOUDY    54  39  57 CALM      30.10S
EAGLE          SUNNY     46  36  66 CALM      30.19F
RIFLE          PTSUNNY   50  40  68 W3        30.09F
DELTA          CLOUDY    57  39  51 NE5       30.08S
NUCLA          CLOUDY    52  37  58 CALM      30.12F
$$

COZ017>023-064>068-211600-
...SOUTHWEST COLORADO...

CITY           SKY/WX    TMP DP  RH WIND       PRES   REMARKS
DURANGO        CLOUDY    54  40  59 E8        30.17F
CORTEZ         SUNNY     60  41  49 VRB3      30.09F
PAGOSA SPRINGS CLOUDY    53  36  51 CALM      30.23S
TELLURIDE      CLOUDY    50  27  40 SE14G20   30.25R
WOLF CREEK PAS NOT AVBL
$$

COZ009-010-012-014-032>034-037-058>063-211600-
...CENTRAL COLORADO...

CITY           SKY/WX    TMP DP  RH WIND       PRES   REMARKS
ASPEN          MOSUNNY   51  31  46 N6        30.15F
BUENA VISTA    CLOUDY    42  35  75 CALM      30.26F
COPPER MTN     SUNNY     37  18  44 SW6       30.36S
BERTHOUD PASS  FAIR      32  23  69 W13G21    30.40R WCI  22
COTTONWOOD PAS CLOUDY    37  34  87 CALM      30.31S
GUNNISON       CLOUDY    43  34  70 S3        30.24S
KREMMLING      SUNNY     43  34  70 CALM      30.22F
LEADVILLE      SUNNY     39  29  67 VRB3      30.28F
SALIDA         CLOUDY    45  39  77 E8        30.34S
SUNLIGHT       CLOUDY    45  27  49 CALM      30.33
WILKERSON PASS FOG      N/A N/A N/A W5        30.38R VSB 1
$$

COZ069>075-211600-
...SAN LUIS VALLEY/SANGRE DE CRISTO MOUNTAINS...

CITY           SKY/WX    TMP DP  RH WIND       PRES   REMARKS
ALAMOSA        PTSUNNY   51  39  63 S13       30.23S
LA VETA PASS   PTSUNNY  N/A N/A N/A MISG      30.33S
SAGUACHE       CLOUDY    45  39  81 S3        30.26S
$$

COZ035-036-038>040-211600-
...NORTHERN COLORADO FRONT RANGE...

CITY           SKY/WX    TMP DP  RH WIND       PRES   REMARKS
DENVER INTL AP CLOUDY    45  41  86 SW5       30.22R
DMNS CITY PARK   N/A     45  39  78 NW3       30.21S
AURORA         CLOUDY    43  39  83 S2        30.22F
FRONT RANGE AP CLOUDY    48  41  76 CALM      30.23R
ERIE MUNI ARPT CLOUDY    44  40  86 NW5       30.22S
BOULDER MUN AP CLOUDY    43  41  93 CALM      30.22S
CENTENNIAL     CLOUDY    44  39  82 VRB5      30.21F
BROOMFIELD     CLOUDY    43  39  87 N5        30.22S
FORT COLLINS   CLOUDY    43  39  87 E5        30.25S
LONGMONT       CLOUDY    47  43  85 N3        30.24S
$$

COZ041-046-047-076>085-087-088-211600-
...PIKES PEAK/PALMER DIVIDE AND SOUTHERN FOOTHILLS...

CITY           SKY/WX    TMP DP  RH WIND       PRES   REMARKS
COLO. SPRINGS  DRZL/FOG  39  39 100 SE13      30.27F VSB 3/4
A. F. ACADEMY  CLOUDY    38  38 100 SE14      30.25S
ELLICOTT       NOT AVBL
FALCON         CLOUDY    38  38 100 S10       30.27S FOG
FORT CARSON    NOT AVBL
LIMON          CLOUDY    40  39  97 S16       30.26F
MONUMENT HILL  MOSUNNY   41  36  81 MISG      30.21S
TRINIDAD       CLOUDY    48  43  82 N7        30.25S
$$

COZ042>045-048>051-090-091-211600-
...NORTHEAST COLORADO...

CITY           SKY/WX    TMP DP  RH WIND       PRES   REMARKS
GREELEY ARPT   CLOUDY    45  39  81 E7        30.23F
AKRON          CLOUDY    45  40  82 S12       30.26F
BURLINGTON     CLOUDY    45  37  73 S10       30.29F
WRAY           MOSUNNY   51  38  60 SE9       30.29F
STERLING       CLOUDY    46  39  76 S7        30.26S
HOLYOKE        NOT AVBL
FORT MORGAN    CLOUDY    46  38  76 SE12      30.25F
$$

COZ086-089-092>099-211600-
...SOUTHEAST COLORADO...

CITY           SKY/WX    TMP DP  RH WIND       PRES   REMARKS
PUEBLO         CLOUDY    43  42  97 E9        30.27S FOG
LA JUNTA       CLOUDY    45  41  86 E16       30.28S
LAMAR          CLOUDY    47  40  76 SE8       30.29S
SPRINGFIELD      N/A     43  40  89 SE9       30.29F
$$



USA.gov is the U.S. government's official web portal to all federal, state and local government web resources and services.